Location: Seven Kings
(51.5667°N, 0.1000°E)
Time: 03:18:21
(UTC+00:00)

FALCON 9 DEB - Pass Details

Date: 29 October 2020
Orbit: 427 x 438 km, 53.0° (Epoch: 24 November)

Event Time Altitude Azimuth Distance (km) Brightness Sun altitude
Rises 18:25:50 0° 287° (WNW) 2,399 8.3 -17.3°
Reaches altitude 10° 18:27:57 10° 285° (WNW) 1,529 7.1 -17.7°
Maximum altitude 18:31:22 71° 201° (SSW) 457 3.2 -18.2°
Enters shadow 18:32:04 51° 138° (SE) 545 3.3 -18.3°
